This is the latest recevied weather packets stored in our database for station/object K1ZK-13. If no packets are shown the sender has not sent any weather packets the latest 10 day(s).
| Time | Temp. | Humidity | Pressure | Rain* | Wind** | Luminosity | Snow |
|---|---|---|---|---|---|---|---|
| 1777675223 | 11.11° C | 46% | 1011.1 hPa | 0 mm | - | 39 W/m² | - |
| 1777674920 | 11.11° C | 46% | 1011.2 hPa | 0 mm | - | 41 W/m² | - |
| 1777674616 | 11.67° C | 42% | 1011.1 hPa | 0 mm | - | 50 W/m² | - |
| 1777674316 | 11.67° C | 41% | 1011.1 hPa | 0 mm | - | 64 W/m² | - |
| 1777674010 | 11.67° C | 44% | 1011.1 hPa | 0 mm | - | 69 W/m² | - |
| 1777673706 | 11.67° C | 44% | 1010.9 hPa | 0 mm | - | 83 W/m² | - |
| 1777673404 | 11.67° C | 42% | 1011.1 hPa | 0 mm | - | 88 W/m² | - |
| 1777673101 | 11.67° C | 43% | 1010.9 hPa | 0 mm | - | 99 W/m² | - |
| 1777672797 | 11.67° C | 41% | 1011 hPa | 0 mm | - | 112 W/m² | - |
| 1777672494 | 11.67° C | 42% | 1011 hPa | 0 mm | - | 109 W/m² | - |
| 1777672189 | 11.67° C | 43% | 1011 hPa | 0 mm | - | 99 W/m² | - |
| 1777671885 | 11.67° C | 41% | 1011.1 hPa | 0 mm | - | 114 W/m² | - |
| 1777671580 | 12.22° C | 42% | 1011.2 hPa | 0 mm | - | 130 W/m² | - |
| 1777671278 | 12.78° C | 41% | 1011.1 hPa | 0 mm | - | 143 W/m² | - |
| 1777670973 | 12.78° C | 40% | 1011.1 hPa | 0 mm | - | 159 W/m² | - |
| 1777670670 | 12.78° C | 42% | 1011.1 hPa | 0 mm | - | 294 W/m² | - |
| 1777670367 | 12.22° C | 38% | 1010.9 hPa | 0 mm | - | 366 W/m² | - |
| 1777670065 | 13.33° C | 36% | 1011 hPa | 0 mm | - | 211 W/m² | - |
| 1777669762 | 12.78° C | 38% | 1010.9 hPa | 0 mm | - | 400 W/m² | - |
| 1777669458 | 12.22° C | 38% | 1011.2 hPa | 0 mm | - | 367 W/m² | - |
| 1777669155 | 12.78° C | 40% | 1011 hPa | 0 mm | - | 133 W/m² | - |
| 1777668852 | 12.78° C | 37% | 1011 hPa | 0 mm | - | 357 W/m² | - |
| 1777668549 | 13.33° C | 35% | 1010.9 hPa | 0 mm | - | 429 W/m² | - |
| 1777665518 | 13.33° C | 40% | 1011 hPa | 0 mm | - | 347 W/m² | - |
| 1777665213 | 13.33° C | 40% | 1011 hPa | 0 mm | - | 347 W/m² | - |
* Rain latest hour (hover to see other rain measurements)
** Current wind speed in m/s (hover to see current wind gust speed)